Regional Weather Roundup
Issued by NWS

Home | Current Version | Previous Version | Text Only | Print | Product List | Glossary Off
Versions: 1 2 3 4 5 6 7 8 9 10 11 12 13 14 15 16 17 18 19 20 21 22 23 24 25 26 27 28 29 30 31 32 33 34 35 36 37 38 39 40 41 42 43 44 45 46 47 48 49 50

000
ASUS43 KLSX 020259
RWRMO

WEATHER SUMMARY FOR MISSOURI
NATIONAL WEATHER SERVICE SPRINGFIELD MO
1000 PM CDT WED JUL 01 2015

NOTE: "FAIR" INDICATES FEW OR NO CLOUDS BELOW 12,000 FEET WITH NO
       SIGNIFICANT WEATHER AND/OR OBSTRUCTIONS TO VISIBILITY.
       CURRENT SKY AND/OR WEATHER CONDITIONS ARE NOT AVAILABLE FOR
       CHILLICOTHE AND FARMINGTON.

MOZ001>031-035>038-043-044-053-054-020400-
...NORTHERN AND WESTERN MISSOURI...

CITY           SKY/WX    TMP DP  RH WIND       PRES   REMARKS
KANSAS CTY INT CLOUDY    79  74  84 E12       29.83R
KANSAS C DTWN  CLOUDY    78  73  84 NE9       29.81R
LEE`S SUMMIT   CLOUDY    73  65  75 NE6       29.81F
ST JOSEPH      CLOUDY    78  71  79 NE13      29.84R
CHILLICOTHE      N/A     76  71  85 NE9G17    29.87R
KIRKSVILLE     LGT RAIN  72  67  84 E9        29.90R

$$
MOZ066>068-077>081-088>096-101>105-020400-
...SOUTHWEST MISSOURI...

CITY           SKY/WX    TMP DP  RH WIND       PRES   REMARKS
SPRINGFIELD    MOCLDY    79  73  82 S9        29.85R
JOPLIN         PTCLDY    82  71  69 SW21      29.80F

$$
MOZ032>034-039>042-045>050-055>058-069>072-020400-
...CENTRAL MISSOURI...

CITY           SKY/WX    TMP DP  RH WIND       PRES   REMARKS
COLUMBIA       LGT RAIN  71  68  90 E12       29.87R
JEFFERSON CITY HVY RAIN  72  70  93 E8        29.86R FOG
ROLLA          CLOUDY    75  72  90 SE7       29.85R THUNDER
SEDALIA        CLOUDY    71  68  90 CALM      29.84R
OSAGE BEACH    CLOUDY    75  72  88 S9        29.78S THUNDER

$$
MOZ051-052-059>065-020400-
...EAST CENTRAL MISSOURI...

CITY           SKY/WX    TMP DP  RH WIND       PRES   REMARKS
ST LOUIS INTL  LGT RAIN  73  68  84 E6        29.87S
SPIRIT OF STL  CLOUDY    73  69  87 NE5       29.85S
ST CHARLES     CLOUDY    72  70  93 CALM      29.85S

$$
MOZ072>076-082>087-097>100-106>115-020400-
...SOUTH CENTRAL AND SOUTHEAST MISSOURI...

CITY           SKY/WX    TMP DP  RH WIND       PRES   REMARKS
CAPE GIRARDEAU PTCLDY    74  71  91 S3        29.87F
FARMINGTON     PTCLDY    73  70  88 SE8       29.90F
WEST PLAINS    MOCLDY    76  73  91 SE6       29.88S

$$



USA.gov is the U.S. government's official web portal to all federal, state and local government web resources and services.